#timestamp,LO_Frequency,Hit,StdDev 
1569366015.7,286047003.3,N
1569366035.5,286047003.0,N
1569366055.4,286047003.1,N
1569366075.2,286047003.5,N
1569366095.1,286047002.9,N
1569366096.0,286047002.9,N
1569366115.8,286047007.4,Y
1569366135.6,286047011.9,P
1569366155.5,286047000.6,N
1569366175.3,286047001.0,N
1569366195.1,286046999.4,N
1569366215.9,286046999.8,N
1569366235.7,286047000.7,N
1569366255.6,286046999.4,N
1569366275.4,286046997.4,N
1569366295.2,286046996.9,N
1569366315.1,286046997.8,N
1569366316.0,286046997.8,N
1569366335.8,286046995.1,N
1569366355.7,286046996.1,N
1569366375.5,286046998.4,N
1569366395.3,286046996.7,N
1569366415.2,286046997.8,N
1569366435.9,286047000.4,N
1569366455.7,286046998.6,N
1569366475.6,286047001.0,N
1569366495.4,286046998.8,N
1569366515.2,286047001.2,N
1569366535.1,286046999.4,N
1569366536.0,286046999.4,N
1569366555.8,286046998.8,N
1569366575.7,286046998.8,N
1569366595.5,286046998.6,N
1569366615.3,286046996.6,N
1569366635.2,286046997.0,N
1569366655.0,286046997.1,N
1569366655.9,286046997.1,N
1569366675.7,286046995.0,N
1569366695.6,286046995.2,N
1569366715.4,286046998.7,N
1569366735.3,286046999.4,N
1569366755.1,286046998.7,N
1569366756.0,286046998.7,N
1569366775.8,286047002.6,N
1569366795.7,286047000.7,N
1569366815.5,286047000.6,N
1569366835.3,286046998.8,N
1569366855.2,286046997.0,N
1569366875.0,286047001.2,N
1569366875.9,286047001.2,N
1569366895.8,286046997.1,N
1569366915.6,286046996.5,N
1569366935.4,286047001.1,N
1569366955.3,286046997.6,N
1569366975.1,286046996.8,N
1569366995.8,286046997.4,N
1569367015.7,286046995.6,N
1569367035.5,286046999.6,N
1569367055.4,286047004.0,N
1569367075.2,286047003.9,N
1569367095.0,286047003.5,N
1569367095.9,286047003.5,N
1569367115.8,286047004.1,N
1569367135.6,286047003.1,N
1569367155.5,286047003.2,N
1569367175.3,286047002.3,N
1569367195.1,286047002.8,N
1569367215.9,286047002.3,N
1569367235.7,286047002.2,N
1569367255.5,286047000.0,N
1569367275.4,286047000.1,N
1569367295.2,286046998.8,N
1569367315.1,286047000.9,N
1569367316.0,286047000.9,N
1569367335.8,286046998.7,N
1569367355.6,286046998.2,N
1569367375.5,286046998.8,N
1569367395.3,286046999.9,N
1569367415.1,286046998.7,N
1569367435.9,286046998.2,N
1569367455.7,286046998.2,N
1569367475.6,286047000.8,N
1569367495.4,286047000.9,N
1569367515.2,286047000.8,N
1569367535.1,286047000.5,N
1569367536.0,286047000.5,N
1569367555.8,286047000.5,N
1569367575.6,286047001.3,N
1569367595.5,286047001.8,N
1569367615.3,286047002.7,N
1569367635.2,286047000.5,N
1569367655.9,286046998.6,N
1569367675.7,286046998.9,N
1569367695.6,286046998.6,N
1569367715.4,286046998.3,N
1569367735.2,286046999.0,N
1569367755.1,286046999.9,N
1569367756.0,286046999.9,N
1569367775.8,286047004.4,Y
1569367795.7,286047000.4,P
1569367815.5,286047002.6,P
1569367835.3,286047002.6,N
1569367855.2,286047000.6,N
1569367875.0,286047002.5,N
1569367875.9,286047002.5,N
1569367895.7,286047002.3,N
1569367915.6,286047000.3,N
1569367935.4,286047005.4,Y
1569367955.3,286047005.6,P
1569367975.1,286046999.8,N
1569367995.8,286046999.9,N
1569368015.7,286047002.5,N
1569368035.5,286047002.3,N
1569368055.3,286047003.9,N
1569368075.2,286047003.4,N
1569368095.0,286047003.0,N
1569368095.9,286047003.0,N
1569368115.8,286047007.0,Y
1569368135.6,286047005.4,P
1569368155.4,286047003.0,N
1569368175.3,286047005.1,P
1569368195.1,286047003.3,N
1569368215.9,286047001.4,N
1569368235.7,286047004.3,Y
1569368255.5,286047000.9,P
1569368275.4,286047002.7,N
1569368295.2,286047005.3,P
1569368315.0,286047004.3,N
1569368315.9,286047004.3,N
1569368335.8,286047001.9,N
1569368355.6,286046999.8,N
1569368375.5,286046998.6,N
1569368395.3,286046998.3,N
1569368415.1,286047001.0,N
1569368435.9,286046999.3,N
1569368455.7,286046998.2,N
1569368475.5,286046997.9,N
1569368495.4,286046997.6,N
1569368515.2,286046997.5,N
1569368535.0,286047001.0,N
1569368536.0,286047001.0,N
1569368555.8,286047001.2,N
1569368575.6,286047000.4,N
1569368595.5,286047002.1,N
1569368615.3,286047000.9,N
1569368635.1,286046998.1,N
1569368655.9,286047001.0,N
1569368675.7,286046996.5,N
1569368695.6,286046997.1,N
1569368715.4,286046999.4,N
1569368735.2,286046997.4,N
1569368755.1,286046994.9,N
1569368756.0,286046994.9,N
1569368775.8,286046997.2,N
1569368795.6,286046996.6,N
1569368815.5,286046997.2,N
1569368835.3,286046998.9,N
1569368855.2,286047002.3,N
1569368875.9,286047000.7,N
1569368895.7,286046998.6,N
1569368915.6,286046999.4,N
1569368935.4,286046998.7,N
1569368955.2,286046999.4,N
1569368975.1,286047000.9,N
1569368976.0,286047000.9,N
1569368995.8,286046998.2,N
1569369015.7,286046998.3,N
1569369035.5,286047000.3,N
1569369055.3,286046999.3,N
1569369075.2,286046998.7,N
1569369095.0,286046998.1,N
1569369095.9,286046998.1,N
1569369115.7,286046998.9,N
1569369135.6,286046996.8,N
1569369155.4,286046994.9,N
1569369175.3,286046997.7,N
1569369195.1,286046994.9,N
1569369196.0,286046994.9,N
1569369215.8,286046995.2,N
1569369235.7,286046997.5,N
1569369255.5,286046995.5,N
1569369275.3,286046996.4,N
1569369295.2,286046995.8,N
1569369315.0,286046996.9,N
1569369315.9,286046996.9,N
1569369335.8,286046998.5,N
1569369355.6,286046999.5,N
1569369375.4,286046995.2,N
1569369395.3,286046994.9,N
1569369415.1,286046999.6,N
1569369435.9,286046997.3,N
1569369455.7,286046999.2,N
1569369475.5,286046994.9,N
1569369495.4,286046997.5,N
1569369515.2,286046997.2,N
1569369535.0,286046997.0,N
1569369535.9,286046997.0,N
1569369555.8,286047003.9,N
1569369575.6,286047002.3,N
1569369595.5,286047000.0,N
